Location: Gleizolles
(44.4833°N, 6.7667°E)
Time: 22:26:33
(UTC+00:00)

Explorer 7 - Pass Details

Date: 20 June 2024
Orbit: 465 x 619 km, 50.3° (Epoch: 19 July)

Event Time Altitude Azimuth Distance (km) Brightness Sun altitude
Rises 12:08:05 0° 253° (WSW) 2,643 10.5 67.9°
Reaches altitude 10° 12:10:22 10° 257° (WSW) 1,729 9.7 67.7°
Maximum altitude 12:14:14 60° 338° (NNW) 568 7.7 67.5°
Drops below altitude 10° 12:17:56 10° 59° (ENE) 1,660 9.2 67.2°
Sets 12:20:05 0° 63° (ENE) 2,524 10.0 67.0°
